This is the latest recevied weather packets stored in our database for station/object CE1RLP-31. If no packets are shown the sender has not sent any weather packets the latest 10 day(s).
| Time | Temp. | Humidity | Pressure | Rain* | Wind** | Luminosity | Snow |
|---|---|---|---|---|---|---|---|
| 1777625554 | 5° C | 11% | 1098.4 hPa | - | - | - | - |
| 1777624654 | 5° C | 9% | 1098.5 hPa | - | - | - | - |
| 1777623754 | 5° C | 10% | 1098.4 hPa | - | - | - | - |
| 1777622854 | 4.44° C | 11% | 1098.4 hPa | - | - | - | - |
| 1777621954 | 4.44° C | 11% | 1098.3 hPa | - | - | - | - |
| 1777621054 | 4.44° C | 15% | 1098.4 hPa | - | - | - | - |
| 1777620154 | 5° C | 16% | 1098.4 hPa | - | - | - | - |
| 1777619254 | 5° C | 16% | 1098.3 hPa | - | - | - | - |
| 1777618354 | 5° C | 15% | 1098.3 hPa | - | - | - | - |
| 1777617453 | 5° C | 14% | 1098.3 hPa | - | - | - | - |
| 1777616553 | 5° C | 14% | 1098.1 hPa | - | - | - | - |
| 1777615653 | 5° C | 14% | 1098.1 hPa | - | - | - | - |
| 1777614753 | 5.56° C | 15% | 1098.2 hPa | - | - | - | - |
| 1777613853 | 5° C | 13% | 1098.2 hPa | - | - | - | - |
| 1777612953 | 5.56° C | 14% | 1098.3 hPa | - | - | - | - |
| 1777612053 | 5.56° C | 15% | 1098.3 hPa | - | - | - | - |
| 1777611153 | 5.56° C | 15% | 1098.3 hPa | - | - | - | - |
| 1777610253 | 5.56° C | 16% | 1098.5 hPa | - | - | - | - |
| 1777609353 | 5.56° C | 14% | 1098.5 hPa | - | - | - | - |
| 1777608453 | 5.56° C | 11% | 1098.5 hPa | - | - | - | - |
| 1777607554 | 5.56° C | 13% | 1098.5 hPa | - | - | - | - |
| 1777606654 | 5.56° C | 12% | 1098.5 hPa | - | - | - | - |
| 1777605754 | 5.56° C | 12% | 1098.5 hPa | - | - | - | - |
| 1777604854 | 5.56° C | 12% | 1098.4 hPa | - | - | - | - |
| 1777603954 | 5.56° C | 11% | 1098.5 hPa | - | - | - | - |
* Rain since midnight (hover to see other rain measurements)
** Current wind speed in m/s (hover to see current wind gust speed)